Location: Waco, TX
(31.5480°N, 97.1670°W)
Time: 15:21:38
(UTC-05:00)

ISS - All Passes

Search period start: 18 October 2018 00:00
Search period end: 28 October 2018 00:00
Orbit: 403 x 408 km, 51.6° (Epoch: 19 October)

Date Brightness Start Highest point End Pass type
(mag) Time Alt. Az. Time Alt. Az. Time Alt. Az.
18 Oct - 09:53:18 10° SW 09:56:34 76° NW 09:59:51 10° NE daylight
18 Oct - 16:26:29 10° N 16:28:00 13° NNE 16:29:33 10° ENE daylight
18 Oct - 18:01:31 10° NW 18:04:46 59° SW 18:08:00 10° SSE daylight
19 Oct - 09:01:34 10° SSW 09:04:41 44° SE 09:07:50 10° ENE daylight
19 Oct - 10:39:23 10° WNW 10:41:21 15° NW 10:43:19 10° N daylight
19 Oct - 17:09:37 10° NW 17:12:51 57° NE 17:16:05 10° ESE daylight
20 Oct - 08:10:25 10° S 08:12:53 20° SE 08:15:20 10° ENE daylight
20 Oct - 09:46:26 10° W 09:49:14 26° NW 09:52:04 10° NNE daylight
20 Oct - 16:17:58 10° NNW 16:20:51 27° NE 16:23:43 10° E daylight
20 Oct - 17:54:46 10° W 17:57:11 19° SW 17:59:35 10° S daylight
21 Oct - 08:54:00 10° WSW 08:57:12 54° NW 09:00:26 10° NE daylight
21 Oct - 15:26:39 10° N 15:28:43 15° NE 15:30:47 10° ENE daylight
21 Oct - 17:02:14 10° WNW 17:05:21 42° SW 17:08:28 10° SSE daylight
22 Oct - 08:02:01 10° SW 08:05:15 63° SE 08:08:30 10° NE daylight
22 Oct - 09:40:39 10° WNW 09:42:02 12° NNW 09:43:25 10° N daylight
22 Oct - 16:10:09 10° NW 16:13:26 80° NE 16:16:43 10° SE daylight
23 Oct - 07:10:34 10° S 07:13:22 27° SE 07:16:12 10° ENE visible
23 Oct - 08:47:18 10° W 08:49:51 21° NW 08:52:24 10° NNE daylight
23 Oct - 15:18:21 10° NNW 15:21:25 35° NE 15:24:29 10° ESE daylight
23 Oct - 16:55:49 10° W 16:57:39 14° SW 16:59:29 10° SSW daylight
24 Oct - 06:20:05 10° SSE 06:21:33 12° SE 06:23:01 10° E visible
24 Oct - 07:54:38 10° WSW 07:57:44 39° NW 08:00:51 10° NNE daylight
24 Oct - 14:26:51 10° NNW 14:29:18 19° NE 14:31:44 10° E daylight
24 Oct - 16:02:52 10° WNW 16:05:49 30° SW 16:08:45 10° SSE daylight
25 Oct - 07:02:27 10° SW 07:05:43 89° SE 07:08:59 10° NE visible
25 Oct - 13:36:00 10° NNE 13:37:04 11° NNE 13:38:08 10° NE daylight
25 Oct - 15:10:37 10° NW 15:13:54 73° SW 15:17:09 10° SE daylight
26 Oct - 06:10:44 10° SSW 06:13:46 36° SE 06:16:49 10° ENE visible
26 Oct - 07:48:09 10° WNW 07:50:21 17° NW 07:52:34 10° N daylight
26 Oct - 14:18:41 10° NNW 14:21:53 47° NE 14:25:03 10° ESE daylight
26 Oct - 15:57:21 10° WSW 15:58:00 10° SW 15:58:40 10° SW daylight
27 Oct - 05:19:43 10° S 05:21:53 17° SE 05:24:04 10° E visible
27 Oct - 06:55:15 10° WSW 06:58:10 30° NW 07:01:07 10° NNE visible
27 Oct - 13:27:01 10° NNW 13:29:45 24° NE 13:32:28 10° E daylight
27 Oct - 15:03:30 10° WNW 15:06:09 23° SW 15:08:47 10° S daylight
